Погода в Кузьмовке

Погода в Кузьмовке : погода сейчас, прогноз погоды и архив. Всё, что Вы хотите узнать о погоде в Кузьмовке!

Поиск расширенной информации на нашем сайте:

Другие новости

Новости СМИ2

Главная страница сайта

Новости сайта

02.10.2013

Напоминаем, что на нашем новом сайте вы можете получить высокодетализированные прогнозы погоды по пунктам России, СНГ и мира (включающие важные для авиации метеовеличины, такие как направление и скорость ветра, видимость, явления погоды, количество и форма облачности, нижняя и верхняя граница облачности), а также ознакомиться с разнообразными материалами по авиационной метеорологии и подборкой полезных ссылок на эту тему.

Сайт Метеоцентр.Азия посвящён разработке технологий оптимизации авиаметеорологического обслуживания, включая проектирование и перспективное создание нескольких автоматизированных авиаметеорологических систем:
- система выпуска высокодетальных прогностических карт явлений погоды для нижнего воздушного пространства по России и ближнему зарубежью;
- система верификации прогнозов TAF (выпускаемых синоптиками официальных АМСГ РФ и ближнего зарубежья) и AUTOTAF (выпускаемых сайтом Метеоцентр.Азия) - выявление ошибок, онлайн-сопоставление с фактической погодой METAR, автоматическое внесение коррективов в прогнозы при резком отклонении фактической погоды от прогноза, подсчёт оправдываемости прогнозов по элементам и в целом;
- система обработки, анализа и отображения авиаметеорологической информации для применения провайдерами метеорологической информации.

Рекомендуем: Комплексные системы безопасности и слаботочные сети читать дальше.

Погода в Кузьмовке - сегодня

Время (UTC), дата Ветер
(°,м/с) 
Видим.   Явления Облачность Т
(°С)
Тd
(°С)
f(%) Тe
(°С)
Pmin
(гПа)
dP
(гПа)
Po
(мм)
O2
(г/м3)
Тmin Tmax R s Состояние
почвы
06 21.03.17 190 (Ю) 20000 м    4/0 верхняя 
[Ci fib]
-2.3 -9.5 58 -2  1031.5  -1.6  768  313           
09 21.03.17 180 (Ю) 20000 м    10/0 верхняя 
[Cs]
+3.8 -8 42 +5  1029.6  -1.7  766  305           
12 21.03.17 180 (Ю) 20000 м    9/3 2000 м средняя, верхняя 
[Ac und|Ci sp]
-1.2 -7.4 63 -1  1029.3  -0.5  766  311    +4.5       
15 21.03.17 090 (В) 20000 м    3/0 верхняя 
[Ci fib]
-8.6 -10.5 86 -8  1029.8  0.3  766  320           
18 21.03.17 тихо ()   20000 м    ясно 
-14.2 -15.5 90 -14  1029.8  -0.2  766  327           
03 22.03.17 тихо ()   20000 м    8/0 верхняя 
[Ci sp]
-12.8 -14.8 85 -13  1031.7  0.4  767  326           
06 22.03.17 тихо ()   20000 м    9/0 верхняя 
[Ci sp]
-3.4 -9.9 61 -3  1030.7  -0.7  767  314           
09 22.03.17 220 (ЮЗ) 20000 м    1/0 верхняя 
[Ci fib]
+3.8 -8.5 40 +5  1028.9  -1.7  766  305           
12 22.03.17 090 (В) 20000 м    3/0 верхняя 
[Ci sp]
-2.7 -8.4 65 -2  1028.9  -0.2  766  312    +4.6       
21 22.03.17 тихо ()   20000 м    10/0 верхняя 
[Ci fib]
-14.1 -15.4 90 -14  1030.3  766  327           
03 23.03.17 210 (ЮЗ) 20000 м    10/0 верхняя 
[Ci fib]
-8.7 -13 71 -8  1028.8  -0.8  765  320           
06 23.03.17 200 (Ю) 20000 м    8/0 верхняя 
[Ci fib]
+1.8 -10.5 40 +3  1026.1  -2.4  764  307           
09 23.03.17 200 (Ю) 20000 м    6/0 верхняя 
[Ci fib]
+4 -12 30 +4  1024.7  -1.3  763  304           
12 23.03.17 180 (Ю) 20000 м    9/6 2000 м средняя, верхняя 
[Ac und|Ci fib]
+2.9 -10.7 36 +2  1019.1  0.2  763  305    +4.5       
18 23.03.17 тихо ()   20000 м    6/6 2000 м средняя 
[Ac und]
-4.5 -8 76 -5  1026.6  0.8  764  314           
03 24.03.17 180 (Ю) 20000 м    8/8 2000 м средняя 
[Ac und]
-2.5 -6.9 72 -2  1028.8  0.6  766  312  -6.5         
06 24.03.17 180 (Ю) 20000 м    3/0 верхняя 
[Ci fib]
+4.2 -8.8 38 +4  1027.9  -0.7  765  304           
09 24.03.17 230 (ЮЗ) 20000 м    3/0 верхняя 
[Ci fib]
+6.1 -9.3 32 +5  1026.4  -1.5  764  302           
12 24.03.17 170 (Ю) 20000 м    4/0 верхняя 
[Ci fib]
+3.1 -10.8 35 +4  1026  -0.5  764  305    +7       
15 24.03.17 170 (Ю) 20000 м    3/0 верхняя 
[Ci fib]
-6.5 -9.7 78 -6  1026.2  764  316           
00 25.03.17 тихо ()   20000 м    6/0 верхняя 
[Ci fib]
-15.6 -16.2 95 -16  1023.5  -1.2  761  327  -15.6      99  равномерный
сухой снег
100% 
03 25.03.17 тихо ()   20000 м    8/0 верхняя 
[Ci fib]
-7.6 -10.7 78 -8  1021.7  -1.5  760  316  -15.8         
06 25.03.17 тихо ()   20000 м    8/0 верхняя 
[Ci fib]
+0.8 -8.5 50 +1  1017.4  -4.1  757  305           
09 25.03.17 180 (Ю) 20000 м    8/0 верхняя 
[Ci sp]
+8.6 -6.9 33 +9  1012.9  -4.2  754  295           
12 25.03.17 180 (Ю) 20000 м    10/10 2000 м 
[Ac As]
+4.5 -8.7 38 +5  1010.1  -2.9  752  299    +9.6       
Время (UTC), дата Ветер
(°,м/с) 
Видим.   Явления Облачность Т
(°С)
Тd
(°С)
f(%) Тe
(°С)
Pmin
(гПа)
dP
(гПа)
Po
(мм)
O2
(г/м3)
Тmin Tmax R s Состояние
почвы

Для получения пояснительной информации подведите курсор к названию столбца.

ПОГОДА в Кузьмовке - архив

Всё, что Вы хотите узнать о погоде в Кузьмовке - удобно и подробно!

Выберите нужную дату (начиная с 1 января 2015* года) и нажмите кнопку "Найти".
Будут отображены архивные сводки погоды по пункту Кузьмовка, начиная с указанной даты.


Отображать данные в формате CSV (для использования в таблицах Excel)


Внимание! Наш архив погоды предназначен исключительно для личного некоммерческого использования в познавательных целях. Если Вам необходимы официальные справки о состоянии погоды (для производственных, юридических, коммерческих и т.п. целей), обращайтесь в органы Росгидромета.

*Примечание: данная дата относится к архиву по метеостанциям СССР (Россия, СНГ, Балтия).
Архив по метеостанциям Зарубежной Европы и Азии (кроме Китая) хранится 10 дней, по другим регионам земного шара (Китай, Африка, Америка, Австралия, Океания) - 1 день.

Кузьмовка - район местоположения метеостанции


Название, широта, долгота, высота метеостанции:
Кузьмовка 62.3°ш. 92.1°д. 60 м над ур. моря [Российская Федерация]

Дополнительная информация

В oтличие oт бoльшинства пoгoдных сайтoв мы публикуем пoдрoбную метеoинфoрмацию в детальнoм прoфессиoнальнoм фoрмате.

Характеристики температуры и влажнoсти вoздуха измеряются на высoте 2 м в тени вдали oт зданий и деревьев.
Скoрoсть ветра измеряется на высoте 10 м (на урoвне рoста челoвека скoрoсть ветра ниже в 1.5-2 раза). Если метеoстанция нахoдится в гoрoде или в лесу, тo скoрoсть ветра занижена на 2-4 м/с пo сравнению с oткрытым местoм. Скoрoсть ветра над акватoриями крупных рек и oзёр, а также на вершинах хoлмoв на 2-5 м/с выше, чем в oбычных услoвиях.
Атмoсфернoе давление в разных тoчках местнoсти мoжет значительнo oтличаться oт давления на метеoстанции, в зависимoсти oт услoвий рельефа (при пoдъёме на 10 м давление пoнижается примернo на 1 мм рт.ст.).